User: anonymous   Login
Location: Mactaquac Provincial Park
(45.9573°N, 66.8897°W)
Time: 10:57:42
(UTC-04:00)
Language:

Cosmos 1867 - Orbit

View from above orbital plane
View from above orbital plane
View from above satellite
View from above satellite

Ground track
Ground track

The orbit data is extracted from the following two-line orbital elements,

1 18187U 87060A   17018.82378675 -.00000100  00000-0  20234-6 0  9998
2 18187  65.0098 286.8129 0017506 257.4954 102.4172 14.31081237542622
Epoch (UTC): 18 January 2017 19:46:15
Eccentricity: 0.0017506
inclination: 65.0098°
perigee height: 775 km
apogee height: 800 km
right ascension of ascending node: 286.8129°
argument of perigee: 257.4954°
revolutions per day: 14.31081237
mean anomaly at epoch: 102.4172°
orbit number at epoch: 54262

The dashed part of the orbit path shows where the satellite is in the earth's shadow,  

DLR